Retour au catalogue

FENGYUN 1C DEB

ActifPO
NORAD 30374·DEBRIS·🇨🇳 China

Lancé May 10, 1999 depuis Taiyuan Satellite Launch Center

Loading…

Prochains Passages (prochaines 24 heures)

TLE

FraisSource: Space-Track

Époque: Sep 14, 2026, 13:16 UTC

1 30374U 99025ACM 26257.55345220  .00004958  00000-0  92629-3 0  9997
2 30374  99.2490 159.8455 0039961  49.9212  73.0015 14.64948274 29550

Suivez FENGYUN 1C DEB en temps réel avec AllMySat

Download on the App Store